Location: New York
(40.7127°N, 74.0060°W)
Time: 18:26:54
(UTC-04:00)

VELOX 1 - Pass Details

Date: 27 April 2024
Orbit: 605 x 617 km, 98.3° (Epoch: 27 May)

Event Time Altitude Azimuth Distance (km) Brightness Sun altitude
Rises 22:15:43 0° 353° (N) 2,902 ? -24.0°
Reaches altitude 10° 22:18:46 10° 330° (NNW) 1,990 ? -24.4°
Maximum altitude 22:21:07 15° 297° (WNW) 1,700 ? -24.7°
Drops below altitude 10° 22:23:29 10° 263° (W) 1,981 ? -25.0°
Sets 22:26:31 0° 240° (WSW) 2,880 ? -25.3°
